User: anonymous
Location: Unspecified
(0.0000°N, 0.0000°E)
Time: 11:18:38
(UTC+02:00)
Language:

CZ-2C R/B - Orbit

View from above orbital plane
View from above orbital plane
View from above satellite
View from above satellite

Ground track
Ground track

The orbit data is extracted from the following two-line orbital elements,

1 28480U 04046B   14112.48670690  .00000165  00000-0  78110-4 0  3183
2 28480 098.0821 272.7946 0142909 027.2460 038.9621 14.25284178490155
Epoch (UTC): 22 April 2014 11:40:51
Eccentricity: 0.0142909
inclination: 98.0821°
perigee height: 705 km
apogee height: 910 km
right ascension of ascending node: 272.7946°
argument of perigee: 27.2460°
revolutions per day: 14.25284178
mean anomaly at epoch: 38.9621°
orbit number at epoch: 49015

The dashed part of the orbit path shows where the satellite is in the earth's shadow,  

DLR